Fulton, NY

8:09 PM EST on December 06, 2019 (GMT -0500)
Oswego County

Weather History for KFZY - May, 2019

Change the Weather History Date:

Saturday, May 4, 2019

  Actual Average (WUND) Record (WUND)
Temperature  
Mean Temperature 49 °F -  
Max Temperature 55 °F - - (-1)
Min Temperature 43 °F - - (-1)
Degree Days  
Heating Degree Days 16    
Moisture  
Dew Point 44 °F    
Average Humidity 83    
Maximum Humidity 93    
Minimum Humidity 71    
Precipitation  
Precipitation 0.00 in - - ()
Sea Level Pressure  
Sea Level Pressure 29.95 in    
Wind  
Wind Speed 5 mph (NW)    
Max Wind Speed 9 mph    
Max Gust Speed -    
Visibility 10 miles    
Events      
Averages and records for this station are not official NWS values.
T = Trace of Precipitation, MM = Missing Value Source: NWS Daily Summary

Daily Weather History Graph

Daily Weather History Graph

Search for Another Location

Airport or City:

Astronomy

May. 04, 2019 Rise Set
Actual Time 5:54 AM EDT 8:10 PM EDT
Civil Twilight 5:23 AM EDT 8:42 PM EDT
Nautical Twilight 4:44 AM EDT 9:21 PM EDT
Astronomical Twilight 4:01 AM EDT 10:05 PM EDT
Moon 6:08 AM EDT (5/4) 7:55 PM EDT (5/4)
Length of Visible Light 15h 18m
Length of Day
14h 15m
Waning Crescent, 0% of the Moon is Illuminated
May 4
Waning Crescent
May 4
New
May 11
First Quarter
May 18
Full
May 26
Last Quarter

Hourly Weather History & Observations

Time (EDT) Temp. Windchill Dew Point Humidity Pressure Visibility Wind Dir Wind Speed Gust Speed Precip Events Conditions
12:54 AM 46.0 °F 42.5 °F 43.0 °F 89% 30.01 in 10.0 mi NW 6.9 mph - N/A   Overcast
1:54 AM 46.0 °F - 44.1 °F 93% 29.98 in 10.0 mi Calm Calm - N/A   Overcast
2:54 AM 46.0 °F 43.9 °F 43.0 °F 89% 29.96 in 10.0 mi NNW 4.6 mph - N/A   Overcast
3:54 AM 46.0 °F 43.9 °F 43.0 °F 89% 29.95 in 10.0 mi NW 4.6 mph - N/A   Overcast
4:54 AM 46.0 °F 43.9 °F 43.0 °F 89% 29.95 in 10.0 mi NW 4.6 mph - N/A   Overcast
5:54 AM 46.0 °F 43.9 °F 43.0 °F 89% 29.96 in 10.0 mi NNW 4.6 mph - N/A   Overcast
6:54 AM 46.9 °F - 44.1 °F 90% 29.95 in 10.0 mi SSE 3.5 mph - N/A   Overcast
7:54 AM 46.9 °F - 45.0 °F 93% 29.98 in 10.0 mi Variable 3.5 mph - N/A   Overcast
8:54 AM 48.0 °F - 45.0 °F 89% 29.98 in 10.0 mi NW 5.8 mph - N/A   Overcast
9:54 AM 50.0 °F - 46.0 °F 86% 29.99 in 10.0 mi NNW 5.8 mph - N/A   Overcast
10:49 AM 51.8 °F - 46.4 °F 82% 29.96 in 10.0 mi NNE 3.5 mph - N/A   Overcast
10:54 AM 51.1 °F - 46.0 °F 83% 29.97 in 10.0 mi Variable 3.5 mph - N/A   Overcast
11:35 AM 52.0 °F - 46.0 °F 80% 29.96 in 10.0 mi North 3.5 mph - N/A   Overcast
11:54 AM 52.0 °F - 46.9 °F 83% 29.97 in 10.0 mi NW 4.6 mph - N/A   Overcast
12:54 PM 53.1 °F - 46.0 °F 77% 29.95 in 10.0 mi NNW 8.1 mph - N/A   Overcast
1:23 PM 55.0 °F - 46.9 °F 74% 29.94 in 10.0 mi NNW 6.9 mph - N/A   Overcast
1:54 PM 55.9 °F - 46.9 °F 72% 29.94 in 10.0 mi NNW 9.2 mph - N/A   Overcast
2:18 PM 55.0 °F - 46.0 °F 72% 29.93 in 10.0 mi NNW 8.1 mph - N/A   Overcast
2:54 PM 52.0 °F - 45.0 °F 77% 29.94 in 10.0 mi NW 8.1 mph - N/A   Overcast
3:54 PM 53.1 °F - 44.1 °F 71% 29.92 in 10.0 mi NW 5.8 mph - N/A   Overcast
4:54 PM 54.0 °F - 45.0 °F 72% 29.91 in 10.0 mi NNW 8.1 mph - N/A   Overcast
5:54 PM 53.1 °F - 44.1 °F 71% 29.92 in 10.0 mi NW 8.1 mph - 0.00 in   Overcast
6:54 PM 50.0 °F - 44.1 °F 80% 29.92 in 10.0 mi NNW 9.2 mph - 0.00 in   Overcast
7:54 PM 46.9 °F - 42.1 °F 83% 29.93 in 10.0 mi NW 5.8 mph - 0.00 in   Scattered Clouds
8:54 PM 45.0 °F 43.5 °F 39.9 °F 82% 29.93 in 10.0 mi West 3.5 mph - N/A   Clear
9:54 PM 44.1 °F 42.5 °F 39.9 °F 85% 29.94 in 10.0 mi West 3.5 mph - N/A   Clear
10:54 PM 43.0 °F - 39.0 °F 86% 29.93 in 10.0 mi Calm Calm - N/A   Clear
11:54 PM 43.0 °F - 39.0 °F 86% 29.93 in 10.0 mi Calm Calm - N/A   Clear